Regional Weather Roundup
Issued by NWS Memphis, TN

Home | Current Version | Previous Version | Text Only | Print | Product List | Glossary On
Versions: 1 2 3 4 5 6 7 8 9 10 11 12 13 14 15 16 17 18 19 20 21 22 23 24 25 26 27 28 29 30 31 32 33 34 35 36 37 38 39 40 41 42 43 44 45 46 47 48 49 50
000
ASUS44 KMEG 241410
RWRMEG
MEMPHIS CWA HOURLY WEATHER ROUNDUP
NATIONAL WEATHER SERVICE MEMPHIS TN
900 AM CDT WED AUG 24 2016

...WEST TENNESSEE...

CITY           SKY/WX    TMP DP  RH WIND       PRES   REMARKS
MEMPHIS INTL   MOSUNNY   86  75  69 SW6       30.17F HX  95
NWS MEMPHIS      N/A     83 N/A N/A MISG        N/A
JACKSON        MOSUNNY   81  76  84 S6        30.18F
DYERSBURG      MOSUNNY   84  75  74 MISG      30.17S HX  92
UNION CITY     SUNNY     79  77  94 SW6       30.16S
PARIS          SUNNY     81  75  83 S6        30.19S


...EASTERN ARKANSAS...

CITY           SKY/WX    TMP DP  RH WIND       PRES   REMARKS
JONESBORO      SUNNY     80  75  84 S7        30.14S
WEST MEMPHIS   SUNNY     82  75  79 VRB3      30.15F
BATESVILLE     SUNNY     82  75  78 SW3       30.13F
NEWPORT        SUNNY     81  76  84 S10       30.13F
WALNUT RIDGE   SUNNY     81  73  78 S8        30.13S
BLYTHEVILLE    SUNNY     81  76  84 S8        30.16S
NW BLYTHEVILLE MOSUNNY   82  75  78 SW9       30.14F
SEARCY         SUNNY     81  77  88 S6        30.14F
STUTTGART      SUNNY     82  72  69 S7        30.15S
PINE BLUFF     SUNNY     82  76  81 SW8       30.15S
MONTICELLO     SUNNY     86  76  71 W6        30.15S HX  96


...NORTH MISSISSIPPI...

CITY           SKY/WX    TMP DP  RH WIND       PRES   REMARKS
TUPELO         SUNNY     83  74  74 SE5       30.21R
OXFORD         SUNNY     81  72  74 S5        30.22R
BATESVILLE     SUNNY     82  74  78 CALM      30.19S
OLIVE BRANCH   MOSUNNY  N/A N/A N/A SW7       30.17F
TUNICA         SUNNY     81  75  83 S3        30.17F
CLARKSDALE     SUNNY     82  81  94 SE5       30.18R HX  95
CORINTH        SUNNY     82  73  74 VRB3      30.20R
GREENWOOD      SUNNY     83  74  74 SW5       30.18R
COLUMBUS       SUNNY     84  77  79 VRB3      30.20R HX  94
GOLDEN TRIANGL SUNNY     82  70  65 CALM      30.20R


...SOUTHEAST MISSOURI...

CITY           SKY/WX    TMP DP  RH WIND       PRES   REMARKS
KENNETT        SUNNY     82  77  83 S10       30.13F HX  91
WEST PLAINS    SUNNY     79  73  82 SW9       30.15S
POPLAR BLUFF   MOSUNNY   80  75  84 SW9       30.12S
CAPE GIRARDEAU CLOUDY    79  73  82 S9        30.12S


...NORTHWEST ALABAMA...

CITY           SKY/WX    TMP DP  RH WIND       PRES   REMARKS
MUSCLE SHOALS  SUNNY     81  71  71 CALM      30.23S


...MIDDLE TENNESSEE...

CITY           SKY/WX    TMP DP  RH WIND       PRES   REMARKS
NASHVILLE      CLOUDY    79  70  74 S6        30.23S
CLARKSVILLE    MOSUNNY   79  72  79 SW8       30.20R
COLUMBIA       SUNNY    N/A N/A N/A CALM      30.21S


...WESTERN KENTUCKY...

CITY           SKY/WX    TMP DP  RH WIND       PRES   REMARKS
PADUCAH        CLOUDY   N/A N/A N/A SW8       30.13F
FORT CAMPBELL  MOSUNNY   81  73  77 SW8       30.19S


...CENTRAL ARKANSAS...

CITY           SKY/WX    TMP DP  RH WIND       PRES   REMARKS
LITTLE ROCK    MOSUNNY   84  76  76 S8        30.13F HX  93


SKY/WX REPORTED AS FAIR MEANS FEW OR NO CLOUDS BELOW
12 THOUSAND FEET.





USA.gov is the U.S. government's official web portal to all federal, state and local government web resources and services.